Change the Weather History Date:

Tuesday, October 16, 2012

  Actual Average Record
Temperature  
Mean Temperature 50 °F -  
Max Temperature 60 °F 48 °F 75 °F (1997)
Min Temperature 39 °F 26 °F 18 °F (2014)
Degree Days  
Heating Degree Days 16    
Moisture  
Dew Point 36 °F    
Average Humidity 59    
Maximum Humidity 87    
Minimum Humidity 29    
Precipitation  
Precipitation 0.08 in 0.02 in - ()
Sea Level Pressure  
Sea Level Pressure 29.40 in    
Wind  
Wind Speed 14 mph ()    
Max Wind Speed 36 mph    
Max Gust Speed 51 mph    
Visibility 11.4 miles    
Events Rain    
Averages and records for this station are not official NWS values.
T = Trace of Precipitation, MM = Missing Value Source: Averaged Metar Reports

Daily Weather History Graph

Daily Weather History Graph

Search for Another Location

Airport or City:

Trip Planner

Search our weather history database for the weather conditions in past years. The results will help you decide how hot, cold, wet, or windy it might be!

Date:

Astronomy

Oct. 16, 2012 Rise Set
Actual Time 7:55 AM MDT 6:37 PM MDT
Civil Twilight 7:22 AM MDT 7:09 PM MDT
Nautical Twilight 6:45 AM MDT 7:46 PM MDT
Astronomical Twilight 6:08 AM MDT 8:23 PM MDT
Moon 9:35 AM MDT (10/16) 7:10 PM MDT (10/16)
Length of Visible Light 11h 47m
Length of Day
10h 42m
New Moon, 2% of the Moon is Illuminated
Oct 16
New Moon
Oct 21
First Quarter
Oct 29
Full
Nov 6
Last Quarter
Nov 13
New

Hourly Weather History & Observations

Time (MDT) Temp. Windchill Dew Point Humidity Pressure Visibility Wind Dir Wind Speed Gust Speed Precip Events Conditions
12:00 AM 49 °F - 35 °F 48% 29.52 in 10 mi South 8.1 mph - -   Overcast
12:00 AM 50.0 °F - 35.6 °F 58% 29.51 in 9.0 mi South 8.1 mph - N/A   Overcast
1:00 AM 51.8 °F - 37.4 °F 58% 29.45 in 9.0 mi South 12.7 mph - N/A   Overcast
2:00 AM 53.6 °F - 39.2 °F 58% 29.40 in 9.0 mi SSW 12.7 mph 21.9 mph N/A   Mostly Cloudy
3:00 AM 51.8 °F - 39.2 °F 62% 29.37 in 9.0 mi SSW 11.5 mph - N/A   Mostly Cloudy
4:00 AM 51.8 °F - 39.2 °F 62% 29.33 in 9.0 mi South 15.0 mph - N/A   Overcast
5:00 AM 50.0 °F - 39.2 °F 66% 29.32 in 9.0 mi South 9.2 mph - N/A   Clear
6:00 AM 49 °F - 40 °F 61% 29.27 in 10 mi South 12.7 mph - -  
6:00 AM 50.0 °F - 41.0 °F 71% 29.27 in 15.0 mi South 12.7 mph - N/A   Clear
7:00 AM 53.6 °F - 39.2 °F 58% 29.23 in 15.0 mi SW 16.1 mph 25.3 mph N/A   Mostly Cloudy
8:00 AM 51.8 °F - 35.6 °F 54% 29.23 in 40.0 mi West 13.8 mph - N/A   Partly Cloudy
8:36 AM 51.8 °F - 39.2 °F 62% 29.24 in 40.0 mi NW 12.7 mph 23.0 mph N/A   Scattered Clouds
9:00 AM 51.8 °F - 39.2 °F 62% 29.25 in 45.0 mi NW 10.4 mph - N/A   Scattered Clouds
10:00 AM 55.4 °F - 39.2 °F 54% 29.24 in 40.0 mi WSW 3.5 mph - N/A   Scattered Clouds
11:00 AM 57.2 °F - 39.2 °F 51% 29.24 in 40.0 mi WSW 19.6 mph 29.9 mph N/A Rain Light Rain Showers
11:20 AM 57.2 °F - 35.6 °F 44% 29.24 in 40.0 mi WSW 29.9 mph 38.0 mph N/A   Mostly Cloudy
12:00 PM 59 °F - 38 °F 33% 29.21 in 10 mi West 28.8 mph - -  
12:00 PM 59.0 °F - 37.4 °F 45% 29.21 in 40.0 mi West 25.3 mph 39.1 mph N/A   Mostly Cloudy
1:46 PM 57.2 °F - 30.2 °F 36% 29.27 in 30.0 mi West 31.1 mph 46.0 mph N/A Rain Light Rain Showers
2:00 PM 57.2 °F - 30.2 °F 36% 29.28 in 30.0 mi West 29.9 mph 46.0 mph N/A   Mostly Cloudy
3:00 PM 59.0 °F - 26.6 °F 29% 29.30 in 30.0 mi West 35.7 mph 50.6 mph N/A   Mostly Cloudy
4:00 PM 55.4 °F - 28.4 °F 36% 29.36 in 40.0 mi West 25.3 mph 43.7 mph N/A   Mostly Cloudy
4:08 PM 55.4 °F - 28.4 °F 36% 29.37 in 40.0 mi West 26.5 mph 39.1 mph N/A Rain Light Rain Showers
5:00 PM 44.6 °F 36.1 °F 41.0 °F 87% 29.49 in 30.0 mi NW 21.9 mph 34.5 mph N/A Rain Light Rain Showers
5:34 PM 41.0 °F 30.5 °F 37.4 °F 87% 29.55 in 30.0 mi NNW 26.5 mph 42.6 mph N/A   Mostly Cloudy
6:00 PM 42 °F - 38 °F 79% 29.58 in 10 mi NNW 19.6 mph - -   Clear
6:00 PM 42.8 °F 34.3 °F 37.4 °F 81% 29.57 in 30.0 mi NNW 19.6 mph 26.5 mph N/A   Mostly Cloudy
7:00 PM 41.0 °F 34.3 °F 37.4 °F 87% 29.62 in 15.0 mi WSW 11.5 mph - N/A   Mostly Cloudy
8:00 PM 41.0 °F 34.3 °F 37.4 °F 87% 29.67 in 15.0 mi West 11.5 mph - N/A   Mostly Cloudy
9:00 PM 39.2 °F 30.8 °F 33.8 °F 81% 29.68 in 15.0 mi West 15.0 mph - N/A   Scattered Clouds
10:00 PM 41.0 °F 31.1 °F 28.4 °F 61% 29.70 in 15.0 mi West 23.0 mph 29.9 mph N/A   Scattered Clouds
11:00 PM 41.0 °F 31.1 °F 26.6 °F 57% 29.73 in 9.0 mi West 23.0 mph 32.2 mph N/A   Overcast